This demonstration page uses our WeatherBlox Daily Observations layout. Learn more.

Left ArrowRight Arrow

Hourly Observations for April 28, 2021

Temp ( °F °C ) Dew Point ( °F °C ) Humidity (%) Winds ( mph kmh ) Pressure ( in mb ) Visibility ( mi km ) Precip ( " mm )
12:53 am 00:53 Clear 47 8.3 30 -1.1 52 52 SW 10 17 29.92 1013 10 16 0.00 0.00
1:53 am 01:53 Clear 48 8.9 30 -1.1 50 50 SW 18 30 29.92 1013 10 16 0.00 0.00
2:53 am 02:53 Clear 48 8.9 30 -1.1 50 50 SSW 21 33 29.93 1013 10 16 0.00 0.00
3:53 am 03:53 Clear 48 8.9 30 -1.1 50 50 SW 18 30 29.93 1014 10 16 0.00 0.00
4:53 am 04:53 Clear 47 8.3 30 -1.1 52 52 SW 18 30 29.95 1014 10 16 0.00 0.00
5:53 am 05:53 Clear 45 7.2 30 -1.1 56 56 SW 18 30 29.96 1014 10 16 0.00 0.00
6:53 am 06:53 Sunny 44 6.7 31 -0.6 60 60 N 3 6 29.99 1016 10 16 0.00 0.00
7:53 am 07:53 Mostly Sunny 47 8.3 32 0 56 56 WSW 10 17 30.01 1016 10 16 0.00 0.00
8:53 am 08:53 Sunny 51 10.6 33 0.6 50 50 WSW 10 17 30.03 1017 10 16 0.00 0.00
9:53 am 09:53 Sunny 56 13.3 32 0 40 40 WNW 14 22 30.03 1017 10 16 0.00 0.00
10:53 am 10:53 Sunny 59 15 31 -0.6 35 35 NW 15 24 30.02 1017 10 16 0.00 0.00
11:53 am 11:53 Sunny 62 16.7 29 -1.7 29 29 WNW 18 30 30.01 1016 10 16 0.00 0.00
12:53 pm 12:53 Mostly Cloudy 63 17.2 29 -1.7 28 28 NW 18 30 30.00 1016 10 16 0.00 0.00
1:53 pm 13:53 Partly Cloudy 66 18.9 29 -1.7 25 25 WNW 10 17 29.99 1016 10 16 0.00 0.00
2:53 pm 14:53 Mostly Cloudy 66 18.9 28 -2.2 24 24 WSW 14 22 29.97 1015 10 16 0.00 0.00
3:53 pm 15:53 Mostly Cloudy 68 20 29 -1.7 23 23 WNW 16 26 29.95 1014 10 16 0.00 0.00
4:53 pm 16:53 Mostly Cloudy 67 19.4 30 -1.1 25 25 WNW 14 22 29.95 1014 10 16 0.00 0.00
5:53 pm 17:53 Mostly Cloudy 70 21.1 30 -1.1 23 23 NW 16 26 29.96 1014 10 16 0.00 0.00
6:53 pm 18:53 Mostly Sunny 67 19.4 29 -1.7 24 24 NW 14 22 29.96 1015 10 16 0.00 0.00
7:53 pm 19:53 Cloudy 63 17.2 30 -1.1 29 29 WNW 9 15 29.98 1015 10 16 0.00 0.00
8:53 pm 20:53 Cloudy 58 14.4 32 0 38 38 W 6 9 30.01 1016 10 16 0.00 0.00
9:53 pm 21:53 Cloudy 55 12.8 34 1.1 45 45 WSW 8 13 30.04 1017 10 16 0.00 0.00
10:53 pm 22:53 Clear 54 12.2 33 0.6 45 45 WNW 9 15 30.06 1018 10 16 0.00 0.00
11:53 pm 23:53 Clear 50 10 33 0.6 52 52 W 6 9 30.07 1018 10 16 0.00 0.00

Powered by AerisWeather